Location: Proctor
(47.8934°N, 114.3048°W)
Time: 21:59:54
(UTC+00:00)

Tiros 1 despin weight - Pass Details

Date: 29 June 2024
Orbit: 576 x 620 km, 48.2° (Epoch: 19 July)

Event Time Altitude Azimuth Distance (km) Brightness Sun altitude
Rises 22:11:49 0° 285° (WNW) 2,897 ? 51.2°
Reaches altitude 10° 22:14:13 10° 278° (W) 1,989 ? 50.8°
Maximum altitude 22:18:30 40° 209° (SSW) 912 ? 50.2°
Drops below altitude 10° 22:22:46 10° 140° (SE) 1,974 ? 49.5°
Sets 22:25:09 0° 133° (SE) 2,871 ? 49.2°
